{"data":{"norad_id":61260,"intl_designator":"2024-175T","name":"STARLINK-32474","alt_names":[],"object_type":"PAYLOAD","status":"ACTIVE","operator":null,"country":"US","launch_date":"2024-09-25","launch_site_code":"AFWTR","launch_vehicle":null,"mission":null,"orbit_class":"UNKNOWN","rcs_meters":null,"size_class":null,"mass_kg":null,"dimensions":null,"purposes":["comms"],"wikipedia_slug":null,"has_3d_model":false,"image_url":null,"decayed_at":null,"tle_current":{"epoch":"2026-05-24T13:54:31.518144Z","epoch_age_seconds":105323,"freshness":"FRESH","line1":"1 61260U 24175T   26144.57953146  .00000236  00000+0  20104-4 0  9992","line2":"2 61260  53.1594 201.4683 0001037  78.3133 281.7984 15.30192725 93077","mean_motion":15.30192725,"eccentricity":0.0001037,"inclination_deg":53.1594,"raan_deg":201.4683,"arg_perigee_deg":78.3133,"mean_anomaly_deg":281.7984,"bstar":2.0104e-5,"rev_number":9307,"period_min":94.105793111779,"perigee_km":474.52609648189,"apogee_km":475.94748620622,"semimajor_km":6853.3737913441,"source":"CELESTRAK","updated_at":"2026-05-25T13:38:19.367394Z"}}}